Presure
91 151 139 132 142 143 111 115 133 130 83 83 78 139 165 152 152 144 150 137 133 157 142 151 159 152 160 151 152 154 154 171 173 168 190 175 206 198 215 214 264 273 262
94 117 83 83 82 82 102 142 132 143 100 111 147 138 156 160 144 139 146 138 138 154 152 158 146 163 153 153 156 158 166 169 180 188 177 189 218 184 217 215 278 268 316
77 156 128 85 84 85 85 137 147 153 144 158 160 144 151 149 167 127 143 136 165 157 147 149 152 155 149 151 160 163 169 171 181 179 193 202 189 202 221 225 266 260 298
86 93 148 96 153 150 151 149 145 143 165 152 144 147 144 130 132 151 144 150 149 149 163 147 152 152 148 165 161 167 170 185 185 180 202 212 186 204 212 276 267 292 294
135 171 153 146 135 126 138 150 159 162 152 132 133 140 138 146 149 146 147 156 161 146 156 152 153 166 169 169 165 168 167 183 178 192 194 224 202 214 241 262 261 302 291
145 146 148 157 159 161 158 151 136 142 143 155 151 152 152 151 157 152 160 168 160 160 153 152 150 172 165 154 169 178 168 185 156 194 170 183 204 251 262 266 258 298 293
143 160 159 147 169 156 154 155 156 153 154 157 158 156 151 158 149 153 163 160 153 158 150 154 174 162 167 171 179 150 185 173 167 202 171 193 184 263 262 267 279 298 285
162 167 162 160 161 159 161 156 160 156 149 157 157 153 157 163 156 166 153 167 169 150 167 172 165 168 177 178 169 163 181 177 190 172 194 193 233 254 267 259 299 302 278
169 163 168 168 160 163 163 158 154 154 152 153 143 159 167 153 159 146 170 171 161 166 167 178 172 180 166 178 167 178 170 196 168 177 190 195 241 263 256 255 309 314 289
166 166 172 177 169 155 168 151 141 141 171 168 171 178 146 169 170 173 170 167 166 181 174 178 143 179 173 173 153 190 185 174 181 193 196 250 256 255 257 289 303 287 267
157 186 168 177 181 175 160 154 180 170 171 179 161 177 182 180 172 174 162 178 161 163 181 180 152 174 171 154 155 170 193 210 168 195 202 253 263 255 254 299 287 268 245
168 165 170 171 176 185 154 173 142 165 162 186 162 174 158 159 152 163 165 164 170 173 178 154 179 179 166 188 165 182 182 192 199 207 229 251 253 247 294 290 278 261 244
143 168 175 146 179 191 182 166 163 182 191 185 163 177 177 178 152 174 171 159 178 163 175 168 183 161 195 165 174 201 183 195 194 203 252 254 253 241 292 280 271 246 231
184 172 176 177 189 186 188 188 174 169 162 162 171 169 194 170 163 186 181 180 163 169 186 178 162 193 164 181 218 184 192 192 215 249 249 251 243 285 281 272 252 231 246
188 160 171 168 158 187 187 143 166 132 161 177 169 177 163 162 173 167 185 170 171 161 175 183 164 171 197 221 201 193 185 197 241 249 243 251 245 283 271 254 232 239 263
181 188 184 180 178 171 176 166 172 170 171 168 167 180 179 182 181 180 172 178 172 179 171 197 177 175 186 189 189 186 201 240 253 249 253 245 285 281 261 240 233 270 264
172 179 153 179 183 188 177 186 176 179 177 178 184 162 162 187 172 155 173 177 172 188 199 181 166 185 187 190 188 197 235 254 243 250 244 233 273 266 244 230 244 234 222
180 185 173 190 190 189 189 188 183 130 187 170 142 184 189 154 184 192 182 186 192 191 198 187 190 184 194 197 196 252 256 241 242 241 246 275 265 251 238 216 230 231 219
171 171 181 198 179 163 199 199 200 201 194 171 199 181 152 196 206 191 197 191 198 182 190 183 209 192 202 213 250 242 254 240 234 238 268 252 259 246 229 216 241 239 237
181 178 168 181 197 200 181 160 161 169 161 191 198 188 197 197 214 216 212 205 199 200 192 202 200 200 252 250 255 247 241 244 235 245 260 244 259 232 230 235 228 246 248
190 186 189 187 183 182 184 186 187 184 177 178 177 186 193 196 201 222 219 218 210 194 196 201 209 249 247 255 245 239 241 240 241 256 243 248 241 228 225 220 245 243 241
206 206 202 200 196 193 192 178 191 194 200 202 192 199 202 204 210 216 173 200 195 202 206 264 256 238 258 245 257 237 236 224 257 252 239 243 231 221 215 237 240 240 235
220 218 213 214 213 214 207 208 206 190 207 211 210 227 232 260 229 205 204 204 207 268 265 256 263 256 248 243 245 228 239 254 263 235 239 241 228 226 224 241 239 230 239
311 286 282 264 254 246 277 242 237 215 213 232 268 259 251 222 315 235 277 274 268 256 259 253 253 248 251 237 235 236 251 260 241 228 241 240 245 221 242 237 234 236 237
343 317 291 231 304 306 304 268 274 265 257 258 264 259 255 295 279 274 263 266 250 246 253 241 238 235 238 230 236 250 253 246 232 251 242 241 225 245 233 234 230 234 247
297 282 280 143 283 323 265 316 310 287 290 255 264 276 270 256 259 242 240 271 258 248 246 252 250 237 237 239 251 258 246 235 246 239 235 227 246 230 231 229 231 237 246
Wind_Speed
34 59 60 60 60 59 47 48 58 57 37 36 25 59 56 56 56 55 57 62 63 57 63 61 62 64 68 68 70 71 72 83 89 82 96 86 97 89 93 88 79 69 65
36 51 31 31 30 34 44 60 57 60 45 52 60 61 57 55 56 57 59 62 65 62 61 63 68 69 68 71 72 74 81 83 95 97 88 90 102 84 96 92 72 69 54
29 62 59 38 40 37 36 62 62 61 60 60 58 61 58 58 59 63 61 66 64 61 65 67 69 68 70 73 77 77 83 87 95 91 99 98 88 95 98 95 75 71 48
46 44 62 49 63 63 63 63 62 63 62 62 62 60 61 60 62 60 63 64 63 64 68 68 72 71 74 79 78 84 83 98 96 92 103 105 88 95 95 75 73 60 46
61 69 68 66 62 61 64 65 63 63 64 66 66 66 65 64 64 64 67 66 69 66 66 71 71 79 84 84 80 84 84 98 88 99 95 108 96 100 93 79 76 55 46
70 69 68 67 67 67 66 64 67 67 68 66 69 66 66 66 65 66 69 74 67 68 67 70 72 85 80 75 85 95 83 99 68 101 78 89 99 97 85 77 75 54 45
68 72 71 69 74 69 66 66 67 67 68 69 70 68 68 69 68 69 74 70 67 69 69 71 85 76 83 89 98 66 99 87 75 104 83 98 92 86 85 79 70 52 44
76 78 75 73 71 69 69 68 67 67 70 72 73 70 72 75 73 78 70 79 78 69 79 84 76 83 95 96 86 81 95 89 99 82 98 99 99 85 78 78 63 50 42
82 78 81 79 74 74 71 66 65 68 72 74 68 75 81 72 76 71 88 87 71 76 82 91 83 94 82 94 83 92 88 105 82 90 96 99 91 82 82 77 56 47 41
78 75 85 87 77 67 75 63 68 69 83 81 87 87 73 85 88 90 90 84 83 97 87 90 68 91 88 89 68 101 99 90 95 104 102 96 85 82 82 73 51 43 39
74 99 78 90 91 82 68 68 88 81 83 88 75 90 91 89 88 92 81 95 82 82 98 95 73 89 87 76 74 90 105 115 82 108 109 90 84 81 83 58 50 45 41
84 76 82 80 86 95 64 86 71 77 75 93 75 84 78 79 75 82 83 84 90 92 94 76 96 96 86 103 85 98 99 105 109 104 106 88 84 85 71 56 50 46 43
62 85 96 61 89 102 96 74 72 93 98 94 77 85 85 90 79 93 91 80 101 84 92 84 104 83 111 86 94 111 102 109 109 111 85 83 82 87 63 56 50 47 43
104 90 92 92 103 100 99 101 90 82 76 78 88 83 98 86 83 102 101 102 88 91 110 102 85 113 86 100 119 103 109 108 110 87 84 82 83 73 61 55 52 48 47
97 76 87 83 70 104 104 73 80 70 86 96 85 94 85 83 93 89 101 95 95 90 98 106 89 93 109 119 99 109 104 112 93 83 86 79 82 67 57 55 53 50 50
95 100 102 100 97 88 95 88 93 93 94 88 88 102 101 105 101 101 94 99 95 100 94 111 102 95 106 108 108 105 112 94 81 82 79 80 72 60 56 55 53 52 48
88 93 77 98 102 103 98 103 97 100 102 101 107 90 87 109 94 82 95 99 90 104 110 102 87 106 108 109 108 112 98 80 85 80 80 81 66 60 56 56 55 52 52
95 100 90 100 102 103 105 105 101 68 106 96 72 108 110 83 106 110 101 105 109 107 107 104 107 105 110 111 111 82 79 85 83 82 79 71 65 59 58 58 57 56 56
92 91 97 107 95 86 108 106 108 109 105 95 111 94 74 111 116 106 111 105 109 103 105 102 110 108 111 105 82 85 77 83 85 81 73 69 64 60 60 60 59 58 58
97 98 91 99 104 107 98 87 83 93 86 106 109 105 109 109 116 115 114 111 109 110 99 108 107 109 80 79 77 78 81 79 80 80 68 67 62 60 60 60 61 61 60
100 100 102 102 101 101 103 105 105 102 96 101 100 106 106 108 110 113 112 108 107 106 107 108 108 84 79 75 78 79 78 80 80 70 67 65 61 61 63 64 62 63 63
101 104 103 106 107 106 106 95 107 108 110 112 109 107 109 111 111 109 84 104 103 106 107 71 73 82 71 76 67 77 79 83 73 64 66 64 62 62 66 65 65 66 67
107 107 105 107 109 109 109 110 109 100 111 110 109 105 103 93 99 105 105 105 106 71 67 72 69 69 72 73 71 82 78 74 65 65 66 64 63 64 67 65 67 70 71
95 92 94 94 97 98 95 102 104 108 109 101 82 84 96 106 53 93 58 59 62 70 66 69 66 70 64 74 78 77 73 67 64 66 65 64 64 67 65 68 69 71 73
80 84 83 74 88 90 92 84 87 84 84 81 80 80 84 48 53 56 64 60 67 71 64 70 71 73 72 77 77 73 69 64 65 64 63 63 65 63 67 69 72 74 79
74 78 77 56 78 74 67 76 77 77 68 80 75 69 60 67 62 72 72 55 57 65 65 65 63 71 73 73 71 67 63 64 65 63 62 64 62 66 69 72 74 77 81
Wind_Direction
262 259 261 268 265 267 277 281 281 283 295 294 295 291 294 294 296 297 299 298 299 303 298 302 311 306 313 307 309 310 310 320 322 320 323 322 327 326 328 328 323 318 318
267 266 278 281 283 286 282 275 280 280 287 288 286 291 292 293 294 295 295 294 296 303 303 308 300 311 308 309 310 313 320 321 321 323 321 324 329 326 329 329 320 320 308
270 262 272 281 282 282 284 279 279 280 283 286 286 289 290 291 297 293 293 294 304 304 299 301 303 307 304 306 313 317 319 320 321 321 324 325 325 328 328 328 323 324 310
274 276 265 277 268 270 273 275 277 280 285 283 286 289 289 291 292 294 293 296 296 298 306 299 303 305 304 315 314 318 317 320 321 321 325 327 327 328 328 322 324 321 309
267 263 266 268 273 276 276 274 279 282 281 286 287 287 289 291 292 292 292 297 299 296 301 301 303 316 314 315 315 316 317 320 320 322 324 326 327 328 325 324 324 317 312
259 262 264 266 270 271 272 276 281 280 281 284 284 287 289 290 293 294 296 302 298 301 298 299 302 313 312 307 314 316 317 319 318 323 323 326 328 322 321 323 325 317 308
262 264 266 266 270 269 273 277 277 280 282 284 287 288 289 292 291 294 299 296 296 299 296 301 311 310 312 313 315 313 318 317 318 324 324 326 326 320 321 323 325 317 311
262 264 265 266 270 272 274 275 279 281 282 286 288 286 290 293 293 299 293 300 303 294 307 309 309 311 312 313 313 312 317 318 320 320 324 324 322 320 320 322 320 313 308
263 265 266 268 269 273 275 276 280 280 281 283 287 288 293 291 295 291 299 301 297 304 304 306 309 310 308 312 312 315 315 319 318 320 322 324 320 320 321 323 317 310 308
266 267 269 269 271 271 275 273 275 278 286 288 290 290 290 294 296 297 299 300 302 302 304 306 301 309 309 311 307 315 316 316 319 321 321 318 318 320 320 323 316 316 309
264 266 271 275 274 275 275 274 284 285 286 287 289 292 293 292 294 295 297 297 299 300 304 306 303 308 310 309 308 314 317 316 316 320 321 316 318 319 321 317 315 313 307
265 270 273 275 275 276 273 283 275 285 285 286 288 290 290 291 291 294 296 297 300 300 303 303 308 308 309 311 311 314 315 317 318 317 317 316 318 319 320 316 314 311 307
262 267 270 264 274 277 278 282 283 284 284 288 286 290 290 293 292 294 296 296 299 301 304 306 305 306 307 309 311 313 316 317 318 318 313 316 316 318 317 315 313 310 306
261 271 273 276 273 273 278 280 283 286 284 286 289 290 288 292 292 294 295 296 299 302 300 301 305 305 309 310 309 313 314 316 314 311 313 315 317 319 315 314 311 309 310
261 272 273 275 275 274 277 271 280 277 282 288 288 290 288 289 292 292 294 295 297 297 301 301 304 307 307 308 311 312 314 313 311 311 312 315 316 316 312 312 309 311 311
262 261 266 270 274 278 278 277 281 282 284 285 286 287 289 288 291 291 292 293 296 297 301 299 303 308 307 308 310 312 311 309 308 310 312 313 317 312 310 308 308 309 309
266 266 269 268 270 272 275 276 279 279 281 282 283 285 287 287 289 291 291 293 295 297 298 301 305 305 306 308 310 310 308 305 308 309 310 312 313 310 308 308 311 309 306
264 266 267 268 269 269 270 272 274 280 277 280 282 281 283 285 286 288 290 292 293 297 298 299 301 303 304 306 307 302 303 306 306 309 310 313 312 309 308 307 309 309 304
264 267 267 265 269 269 269 271 272 273 275 279 277 281 285 283 283 284 287 292 293 295 298 300 299 303 303 303 301 303 304 304 307 309 312 311 310 307 306 306 310 309 307
262 263 266 267 265 267 272 272 276 276 278 276 277 279 280 282 282 283 285 289 291 293 296 297 300 300 296 299 300 302 302 304 306 309 310 309 308 307 307 307 307 310 310
260 262 264 266 267 269 270 270 272 273 275 277 278 279 281 283 283 281 284 287 290 292 296 298 296 296 298 297 299 301 301 303 307 311 307 309 307 306 306 308 310 310 309
261 261 262 263 264 265 266 272 269 271 271 271 277 279 279 280 281 282 288 288 291 292 294 290 292 296 294 297 299 299 302 306 308 306 306 307 307 305 306 310 310 310 309
259 260 261 262 264 264 265 266 266 270 270 272 273 275 277 280 283 284 286 288 288 286 288 288 290 291 294 295 296 300 303 306 305 304 307 307 306 306 307 309 310 309 312
257 256 258 257 258 260 263 260 262 267 269 271 277 275 279 277 280 281 279 281 281 286 287 289 289 292 293 294 297 300 304 304 305 303 307 307 307 307 309 309 310 312 313
255 258 259 266 265 268 267 261 266 263 266 269 277 277 275 275 275 276 279 277 284 286 286 288 291 292 292 296 299 302 303 303 303 305 305 305 306 309 308 310 312 314 315
255 258 260 274 263 264 268 266 268 272 271 267 276 276 272 278 277 279 281 280 282 285 287 289 288 291 293 297 300 301 301 302 304 304 305 305 308 307 310 311 313 315 315